This demonstration page uses our WeatherBlox Daily Observations layout. Learn more.

38.89511, -77.03637

Hourly Observations for August 5, 2015

Temp ( °F °C ) Dew Point ( °F °C ) Humidity (%) Winds ( mph kmh ) Pressure ( in mb ) Visibility ( mi km ) Precip ( " mm )
12:52 am 00:52 Partly Cloudy 78 25.6 70 21.1 76 76 NW 7 11 29.93 1014 10 16.0934 0 0
1:52 am 01:52 Mostly Cloudy 78 25.6 70 21.1 76 76 NW 7 11 29.93 1014 10 16.0934 0 0
2:52 am 02:52 Cloudy 77 25 70 21.1 79 79 NNW 6 9 29.93 1014 10 16.0934 0 0
3:52 am 03:52 Mostly Cloudy 77 25 69 20.6 77 77 N 5 7 29.94 1014 10 16.0934 0 0
4:52 am 04:52 Cloudy 76 24.4 69 20.6 79 79 NNW 3 6 29.93 1014 10 16.0934 0 0
5:52 am 05:52 Cloudy 77 25 69 20.6 77 77 Calm 29.94 1014 10 16.0934 0 0
6:52 am 06:52 Mostly Cloudy 76 24.4 69 20.6 79 79 Calm 29.95 1014 10 16.0934 0 0
7:52 am 07:52 Mostly Cloudy 76 24.4 68 20 77 77 Calm 29.97 1015 10 16.0934 0 0
8:52 am 08:52 Mostly Cloudy 82 27.8 69 20.6 65 65 Calm 29.97 1015 10 16.0934 0 0
9:52 am 09:52 Partly Cloudy 84 28.9 68 20 59 59 Calm 29.97 1015 10 16.0934 0 0
10:52 am 10:52 Partly Cloudy 87 30.6 64 17.8 46 46 WNW 7 11 29.98 1015 10 16.0934 0 0
11:52 am 11:52 Partly Cloudy 89 31.7 62 16.7 41 41 NNW 7 11 29.98 1015 10 16.0934 0 0
12:52 pm 12:52 Partly Cloudy 90 32.2 61 16.1 38 38 WNW 12 19 29.96 1015 10 16.0934 0 0
1:52 pm 13:52 Partly Cloudy 91 32.8 60 15.6 35 35 NW 7 11 29.94 1014 10 16.0934 0 0
2:52 pm 14:52 Partly Cloudy 90 32.2 58 14.4 34 34 W 10 17 29.94 1014 10 16.0934 0 0
3:52 pm 15:52 Partly Cloudy 92 33.3 59 15 33 33 WNW 14 22 29.93 1014 10 16.0934 0 0
4:52 pm 16:52 Partly Cloudy 93 33.9 58 14.4 31 31 WNW 13 20 29.92 1013 10 16.0934 0 0
5:52 pm 17:52 Mostly Sunny 92 33.3 58 14.4 32 32 NW 10 17 29.92 1013 10 16.0934 0 0
6:52 pm 18:52 Mostly Sunny 89 31.7 59 15 36 36 N 10 17 29.92 1013 10 16.0934 0 0
7:52 pm 19:52 Partly Cloudy 87 30.6 57 13.9 36 36 NW 6 9 29.94 1014 10 16.0934 0 0
8:52 pm 20:52 Partly Cloudy 87 30.6 55 12.8 34 34 NW 7 11 29.95 1014 10 16.0934 0 0
9:52 pm 21:52 Mostly Cloudy 86 30 55 12.8 35 35 NW 8 13 29.96 1015 10 16.0934 0 0
10:52 pm 22:52 Mostly Cloudy 82 27.8 59 15 46 46 N 8 13 29.97 1015 10 16.0934 0 0
11:52 pm 23:52 Mostly Cloudy 80 26.7 60 15.6 51 51 N 7 11 29.98 1015 10 16.0934 0 0

Powered by AerisWeather